This demonstration page uses our WeatherBlox Daily Observations layout. Learn more.

Left ArrowRight Arrow

Hourly Observations for June 28, 2022

Temp ( °F °C ) Dew Point ( °F °C ) Humidity (%) Winds ( mph kmh ) Pressure ( in mb ) Visibility ( mi km ) Precip ( " mm )
12:02 am 00:02 Cloudy with Light Rain 73 22.8 71 21.7 94 94 WNW 8 13 30.05 1018 6 10 0.00 0.00
12:10 am 00:10 Cloudy with Light Rain 73 22.8 71 21.7 94 94 NNW 12 19 30.06 1018 6 10 0.02 0.51
12:59 am 00:59 Cloudy with Light Rain 73 22.8 71 21.7 94 94 NE 10 17 30.06 1018 6 10 0.08 2.03
1:59 am 01:59 Cloudy with Light Rain 70 21.1 66 18.9 87 87 N 6 9 30.06 1018 6 10 0.04 1.02
2:59 am 02:59 Mostly Cloudy 70 21.1 66 18.9 87 87 NNW 6 9 30.07 1018 9 14 0.00 0.00
3:49 am 03:49 Partly Cloudy 70 21.1 66 18.9 87 87 N 5 7 30.08 1019 9 14 0.00 0.00
3:59 am 03:59 Partly Cloudy 70 21.1 66 18.9 87 87 N 5 7 30.08 1019 9 14 0.00 0.00
4:59 am 04:59 Partly Cloudy 70 21.1 66 18.9 87 87 N 10 17 30.09 1019 10 16 0.00 0.00
5:59 am 05:59 Partly Cloudy 72 22.2 64 17.8 76 76 N 14 22 30.12 1020 10 16 0.00 0.00
6:59 am 06:59 Mostly Cloudy 72 22.2 64 17.8 76 76 N 10 17 30.14 1021 10 16 0.00 0.00
7:59 am 07:59 Mostly Cloudy 74 23.3 64 17.8 71 71 NNE 18 30 30.15 1021 10 16 0.00 0.00
8:59 am 08:59 Partly Cloudy 75 23.9 64 17.8 69 69 N 17 28 30.17 1022 10 16 0.00 0.00
9:59 am 09:59 Partly Cloudy 75 23.9 64 17.8 69 69 NNE 21 33 30.19 1022 10 16 0.00 0.00
10:59 am 10:59 Mostly Cloudy 77 25 64 17.8 64 64 N 15 24 30.21 1023 10 16 0.00 0.00
11:59 am 11:59 Mostly Cloudy 77 25 53 11.7 43 43 N 14 22 30.22 1023 10 16 0.00 0.00
12:59 pm 12:59 Partly Cloudy 81 27.2 55 12.8 41 41 N 16 26 30.22 1023 10 16 0.00 0.00
1:59 pm 13:59 Mostly Cloudy 82 27.8 57 13.9 42 42 N 13 20 30.21 1023 10 16 0.00 0.00
2:59 pm 14:59 Mostly Cloudy 80 26.7 53 11.7 39 39 NE 14 22 30.21 1023 10 16 0.00 0.00
3:59 pm 15:59 Mostly Cloudy 78 25.6 53 11.7 42 42 NE 9 15 30.21 1023 10 16 0.00 0.00
4:59 pm 16:59 Mostly Cloudy 68 20 54 12.2 61 61 ENE 7 11 30.20 1023 10 16 0.00 0.00
5:59 pm 17:59 Mostly Cloudy 77 25 57 13.9 50 50 E 6 9 30.20 1023 10 16 0.00 0.00
6:59 pm 18:59 Mostly Cloudy 76 24.4 55 12.8 48 48 E 7 11 30.21 1023 10 16 0.00 0.00
7:59 pm 19:59 Mostly Cloudy 72 22.2 55 12.8 55 55 E 6 9 30.22 1023 10 16 0.00 0.00
8:59 pm 20:59 Mostly Cloudy 70 21.1 57 13.9 64 64 E 3 6 30.22 1024 10 16 0.00 0.00
9:59 pm 21:59 Mostly Cloudy 72 22.2 61 16.1 68 68 SE 5 7 30.24 1024 10 16 0.00 0.00
10:59 pm 22:59 Mostly Cloudy 70 21.1 61 16.1 73 73 SSE 3 6 30.24 1024 10 16 0.00 0.00
11:59 pm 23:59 Mostly Cloudy 68 20 61 16.1 78 78 S 5 7 30.25 1024 10 16 0.00 0.00

Powered by AerisWeather